Regional Weather Roundup
Issued by NWS Northern Indiana

Home | Current Version | Previous Version | Text Only | Print | Product List | Glossary Off
Versions: 1 2 3 4 5 6 7 8 9 10 11 12 13 14 15 16 17 18 19 20 21 22 23 24 25 26 27 28 29 30 31 32 33 34 35 36 37 38 39 40 41 42 43 44 45 46 47 48 49 50

000
ASUS43 KIWX 031700
RWRIWX

KIWX WEATHER ROUNDUP
NATIONAL WEATHER SERVICE NORTHERN INDIANA
100 PM EDT TUE MAY 03 2016

NOTE: "FAIR" INDICATES FEW OR NO CLOUDS BELOW 12,000 FEET WITH NO
SIGNIFICANT WEATHER AND/OR OBSTRUCTIONS TO VISIBILITY.

* THESE STATIONS ARE NOT UNDER NWS QUALITY CONTROL. THEY ALSO MAY NOT
  REPORT WEATHER SUCH AS PRECIPITATION OR FOG.

INZ001>027-031800-
NORTHERN INDIANA

CITY           SKY/WX    TMP DP  RH WIND       PRES   REMARKS
GARY*          MOSUNNY   64  43  45 N5        29.94F
SOUTH BEND     SUNNY     60  40  47 NW7       29.93F
ELKHART*       MOSUNNY   61  45  55 CALM      29.93F
GOSHEN         PTSUNNY   60  43  53 W6        29.92F
ANGOLA*        MOSUNNY   61  41  48 W6        29.90
FORT WAYNE     PTSUNNY   57  44  62 NW5       29.93F
PERU/GRISSOM   PTSUNNY   55  48  76 NW2       29.93F

$$
INZ028>050-031800-
CENTRAL INDIANA

CITY           SKY/WX    TMP DP  RH WIND       PRES   REMARKS
LAFAYETTE      SUNNY     59  40  49 N10       29.95F
KOKOMO*        PTSUNNY   55  46  71 N6        29.94F
MUNCIE*        CLOUDY    55  46  71 N5        29.94S
INDIANAPOLIS   LGT RAIN  52  48  86 N8        29.95S

$$
MIZ043>046-050>051-056>058-064>065-071>073-077>080-031800-
SOUTHWEST LOWER MICHIGAN

CITY           SKY/WX    TMP DP  RH WIND       PRES   REMARKS
BATTLE CREEK   SUNNY     63  35  35 VRB5      29.90F
BENTON HARBOR  SUNNY     58  36  43 W9        29.93F
COLDWATER*     PTSUNNY   60  39  45 NW5       29.91S
HILLSDALE*     MOSUNNY   60  32  35 NW8       29.90S
HOLLAND        SUNNY     60  35  39 W12       29.91F
GRAND RAPIDS   MOSUNNY   63  38  39 SW12G20   29.89F
KALAMAZOO      MOSUNNY   63  37  38 SW5       29.91F
THREE RIVERS*  PTSUNNY   60  36  41 CALM      29.91F

$$
OHZ001>008-015>018-024>025-031800-
NORTHWEST OHIO

CITY           SKY/WX    TMP DP  RH WIND       PRES   REMARKS
DEFIANCE       CLOUDY    58  42  55 CALM      29.91F
FINDLAY        PTSUNNY   58  42  55 W6        29.90F
TOLEDO EXPRESS CLOUDY    58  41  53 NW5       29.90F
TOLEDO METCALF CLOUDY    59  42  53 N3        29.90F
LIMA           CLOUDY    54  45  71 NW6       29.91F

$$
AND FOR LAKE MICHIGAN COASTAL AND OPEN LAKE BUOY OBSERVATIONS

STATION/POSITION TEMP    WIND        PRES    VSBY  WAVE
                 AIR SEA DIR/SP/G                  HT/PER
                 (F)     (DEG/KT/KT) (MB)    (MI)  (FT/S)
CALUMET HARBOR    57      70/  5/  6 1013.3F
MICHIGAN CITY     49     210/  2/  3   N/A
BURNS HARBOR      53        CALM     1014.9F
SAINT JOSEPH      50     200/  6/  7 1014.9R
SOUTH LAKE BUOY   43 41  190/ 10/ 10 1013.3          0
4 MI NW BRIDGMAN  47 48                N/A           1

$$
&&




USA.gov is the U.S. government's official web portal to all federal, state and local government web resources and services.